Notices

Due to recent upgrades, we are currently experiencing delays in populating our data report tables. We thank you for your patience during this time of difficulty as we are working in rectifying this issue as soon as possible. If you have any questions or concerns, please contact us.

Hourly Data Report for August 09, 2020

OTTAWA INTL A
ONTARIO
Current Station Operator: NAVCAN

45°19'00.000" N
75°40'00.000" W
114.90 m
6106001
71628
YOW

Download Data

Hourly Data (August 2020)
Hourly Data Report for August 9, 2020
TIME
LST
Temp Definition
°C
Dew Point Definition
°C
Rel Hum Definition
%
Precip. Amount Definition
mm

Wind Dir Definition
10's deg

Wind Spd Definition
km/h
Visibility Definition
km
Stn Press Definition
kPa
Hmdx Definition


Wind Chill Definition


Weather Definition


00:00 20.8 17.7 82   21 9 24.1 100.39 27   LegendNANA
01:00 19.7 17.6 87   28 8 24.1 100.39     Mostly Cloudy
02:00 19.3 17.6 90   20 13 24.1 100.40     LegendNANA
03:00 19.1 17.6 91   19 8 24.1 100.38     LegendNANA
04:00 18.9 17.4 91   21 9 24.1 100.38     Mostly Cloudy
05:00 18.7 17.2 91   19 9 24.1 100.40     LegendNANA
06:00 19.0 16.7 86   19 10 24.1 100.39     LegendNANA
07:00 19.9 16.8 82   20 13 24.1 100.40     Mostly Cloudy
08:00 21.5 17.1 76   19 13 24.1 100.36 27   LegendNANA
09:00 23.2 17.5 70   23 13 24.1 100.35 29   LegendNANA
10:00 22.7 17.6 73   19 8 24.1 100.32 28   Mostly Cloudy
11:00 22.9 18.6 76   18 4 24.1 100.31 29   Rain Showers
12:00 21.4 18.0 80   21 11 24.1 100.32 27   Rain Showers
13:00 19.7 18.7 94   20 12 12.9 100.31     Rain
14:00 19.5 18.0 91   16 13 16.1 100.25     Rain
15:00 21.0 18.7 86   20 13 24.1 100.21 28   LegendNANA
16:00 21.6 18.7 83   17 13 24.1 100.17 28   Cloudy
17:00 21.5 19.4 88   17 8 24.1 100.17 29   Rain Showers
18:00 20.8 19.7 93   4 3 11.3 100.15 28   Rain
19:00 20.8 19.9 95   13 4 16.1 100.13 28   Mostly Cloudy
20:00 20.1 19.6 97   4 5 24.1 100.19 27   LegendNANA
21:00 19.6 19.4 99   36 2 24.1 100.20     LegendNANA
22:00 17.5 17.3 99   25 3 1.2 100.19     Fog
23:00 18.0 17.8 99   36 2 1.6 100.17     Fog

Notes on Data Quality.

Legend

  • E = Estimated
  • M = Missing
  • NA = Not Available*
  • [empty] = Indicates an unobserved value
Date modified: